[[{"header":{"parameterUnit":"m.s-1","parameterCategory":1,"la1":30.2991,"la2":30.254,"lo1":-89.0895,"lo2":-89.0444,"dy":0.0017,"dx":0.0017,"nx":28,"ny":28,"refTime":"2023-11-07T09:00:00:Z","depth":0,"parameterNumber":2,"parameterNumberName":"U-component_of_WINDS"},"data":[0,0,0,0,0,0,0,0,0,0,0,0,0,0,0,0,0,0,0,0,0,0,0,0,0,0,0,0,0,0,0,0,0,0,0,0,0,0,0,0,0,0,0,0,0,0,0,0,0,0,0,0,0,0,0,0,0,0,-0.2853,-0.2852,0,-0.2796,-0.2795,-0.2795,-0.2817,-0.2819,-0.282,-0.2821,-0.2761,-0.2758,-0.2755,0,0,0,0,0,0,0,0,0,0,0,0,0,-0.2976,-0.2974,-0.2853,-0.2852,-0.2851,-0.2796,-0.2795,-0.2794,-0.2817,-0.2819,-0.2821,-0.2822,-0.2762,-0.2758,-0.2755,0,0,0,0,0,0,0,0,0,0,0,0,0,-0.2921,-0.2973,-0.2853,-0.2856,-0.2856,-0.2796,-0.2795,-0.2794,-0.2817,-0.2819,-0.2821,-0.2823,-0.2763,-0.2759,-0.2755,-0.2688,0,0,-0.2741,-0.274,0,0,0,0,0,0,0,0,-0.2924,-0.2917,-0.2856,-0.2856,-0.2855,-0.2816,-0.2817,-0.2758,-0.2816,-0.2832,-0.2821,-0.2824,-0.2777,-0.2772,-0.2757,-0.2685,-0.2682,-0.2741,-0.2738,-0.2737,-0.2735,0,0,0,0,0,0,0,-0.2928,-0.2919,-0.283,-0.2855,-0.2855,-0.2859,-0.2853,-0.2806,-0.2794,-0.283,-0.2832,-0.2825,-0.2777,-0.2761,-0.2756,-0.2681,-0.2741,-0.2737,-0.2735,-0.2733,-0.2546,-0.2544,0,0,0,0,0,0,-0.2933,-0.2922,-0.2832,-0.2828,-0.2896,-0.2855,-0.2849,-0.2826,-0.2794,-0.2791,-0.2823,-0.2826,-0.2767,-0.2761,-0.2754,-0.2669,-0.2737,-0.2733,-0.273,-0.2549,-0.2546,-0.2543,0,0,0,0,0,0,-0.2935,-0.2924,-0.2834,-0.2876,-0.2865,-0.2851,-0.2825,-0.2824,-0.2808,-0.2789,-0.2787,-0.2809,-0.2769,-0.276,-0.2703,-0.2668,-0.2731,-0.2727,-0.2551,-0.2548,-0.2544,-0.2502,0,0,0,0,0,0,-0.2939,-0.2925,-0.2901,-0.2875,-0.2862,-0.2786,-0.2823,-0.2822,-0.28,-0.2804,-0.2775,-0.2772,-0.277,-0.2709,-0.2699,-0.2663,-0.2723,-0.2554,-0.255,-0.2546,-0.2507,-0.2498,-0.249,0,0,0,0,0,-0.2943,-0.2892,-0.2899,-0.2888,-0.2832,-0.2784,-0.2776,-0.2775,-0.2798,-0.2772,-0.2759,-0.2773,-0.2674,-0.2703,-0.2691,-0.2654,-0.2557,-0.2551,-0.2546,-0.251,-0.2499,-0.249,0,0,0,0,0,0,-0.2914,-0.2888,-0.2897,-0.2836,-0.2812,-0.2788,-0.2755,-0.2764,-0.2733,-0.2737,-0.2736,-0.2729,-0.267,-0.2657,-0.269,-0.2585,-0.2618,-0.261,-0.2595,-0.2585,-0.2577,-0.2579,-0.272,0,0,0,0,0,-0.29,-0.2864,-0.2844,-0.2792,-0.278,-0.2769,-0.2749,-0.275,-0.2724,-0.2714,-0.2697,-0.2671,-0.2634,-0.2609,-0.2574,-0.2506,-0.2497,-0.2474,-0.2466,-0.2459,-0.2451,-0.2409,-0.2397,-0.2526,-0.2526,-0.2526,0,0,-0.2872,-0.2854,-0.2831,-0.2786,-0.2767,-0.2728,-0.2761,-0.2719,-0.2689,-0.2707,-0.2652,-0.2639,-0.2609,-0.2545,-0.2516,-0.2532,-0.2414,-0.2452,-0.2447,-0.2442,-0.2402,-0.239,-0.2379,-0.2522,-0.2523,-0.2523,0,0,-0.2799,-0.2784,-0.2736,-0.2717,-0.2688,-0.2681,-0.2669,-0.2643,-0.2635,-0.258,-0.2591,-0.2555,-0.2492,-0.2469,-0.2449,-0.2365,-0.2374,-0.2354,-0.2309,-0.2268,-0.2258,-0.2249,-0.2214,-0.2203,-0.2347,-0.2346,-0.2346,0,-0.2767,-0.271,-0.2711,-0.2667,-0.2645,-0.266,-0.261,-0.2591,-0.2552,-0.2535,-0.2555,-0.2473,-0.2454,-0.2383,-0.2362,-0.2347,-0.2331,-0.2356,-0.226,-0.225,-0.2242,-0.2209,-0.2197,-0.2344,-0.2344,-0.2344,-0.2345,0,-0.2669,-0.2629,-0.2594,-0.2555,-0.253,-0.2483,-0.2475,-0.2449,-0.2452,-0.2442,-0.2383,-0.2362,-0.232,-0.2304,-0.2307,-0.2232,-0.2242,-0.2261,-0.2293,-0.2227,-0.2196,-0.2184,-0.234,-0.2341,-0.2342,-0.2342,0,0,-0.2576,-0.2537,-0.2524,-0.2504,-0.2473,-0.244,-0.2394,-0.2353,-0.2329,-0.2301,-0.2259,-0.2204,-0.2219,-0.2197,-0.2197,-0.2162,-0.2091,-0.2184,-0.2183,-0.2164,-0.2001,-0.1985,-0.197,-0.2098,-0.2096,-0.2094,-0.2002,0,-0.2498,-0.2416,-0.2414,-0.2338,-0.2298,-0.2311,-0.2269,-0.2244,-0.2233,-0.2197,-0.2185,-0.2144,-0.217,-0.2156,-0.2122,-0.2107,-0.2057,-0.2114,-0.2056,-0.2054,-0.2059,-0.1955,-0.1938,-0.1852,-0.1991,-0.1989,-0.1987,0,-0.2396,-0.2363,-0.2282,-0.2253,-0.2236,-0.2199,-0.2159,-0.2126,-0.2096,-0.209,-0.2064,-0.2068,-0.2017,-0.2054,-0.1982,-0.202,-0.1996,-0.1985,-0.1982,-0.1973,-0.2014,-0.194,-0.1826,-0.1811,-0.1969,-0.197,-0.1972,0,-0.233,-0.2267,-0.2209,-0.2193,-0.2158,-0.2131,-0.2115,-0.2087,-0.2062,-0.2027,-0.201,-0.1971,-0.1948,-0.1916,-0.1909,-0.1937,-0.1835,-0.1872,-0.1825,-0.1825,-0.1801,-0.1802,-0.1677,-0.1792,-0.1792,-0.1793,-0.1793,0,-0.2241,-0.219,-0.2179,-0.2143,-0.2085,-0.2083,-0.2026,-0.2012,-0.1986,-0.1946,-0.1956,-0.1918,-0.1912,-0.1872,-0.1866,-0.1804,-0.1795,-0.1787,-0.1785,-0.1784,-0.1784,-0.1766,-0.177,-0.1789,-0.179,-0.1791,-0.1791,0,-0.2157,-0.2149,-0.2085,-0.2057,-0.2048,-0.2007,-0.1981,-0.1945,-0.1936,-0.1884,-0.1872,-0.1856,-0.1808,-0.1799,-0.1743,-0.1739,-0.1664,-0.1671,-0.1674,-0.1673,-0.1626,-0.1628,-0.1482,-0.146,-0.1593,-0.1592,-0.1591,0,-0.2099,-0.206,-0.2026,-0.2,-0.1982,-0.1941,-0.1914,-0.191,-0.1882,-0.1843,-0.1811,-0.1765,-0.1727,-0.1651,-0.1633,-0.1589,-0.1592,-0.1543,-0.1585,-0.1584,-0.1586,-0.1587,-0.158,-0.1534,-0.1533,-0.1532,-0.1531,0,-0.1995,-0.1992,-0.1954,-0.1913,-0.1881,-0.1848,-0.1818,-0.1795,-0.1787,-0.1754,-0.1706,-0.1676,-0.1618,-0.1571,-0.1527,-0.1509,-0.1516,-0.1518,-0.1504,-0.15,-0.1502,-0.1496,-0.1647,-0.1521,-0.1522,-0.1523,-0.1523,-0.1523,-0.1919,-0.1883,-0.1853,-0.1809,-0.1785,-0.1755,-0.1719,-0.1704,-0.1664,-0.1616,-0.1616,-0.1562,-0.153,-0.1471,-0.145,-0.1406,-0.1421,-0.1402,-0.1397,-0.1391,-0.1384,-0.1512,-0.1399,-0.1399,-0.1399,-0.14,-0.14,0,-0.1812,-0.1793,-0.1753,-0.1708,-0.1672,-0.1685,-0.165,-0.1619,-0.1571,-0.1541,-0.1504,-0.1446,-0.1399,-0.1377,-0.133,-0.1298,-0.13,-0.1286,-0.1286,-0.1281,-0.1376,-0.139,-0.1284,-0.1284,-0.1284,-0.1284,-0.1285,-0.1285,-0.1752,-0.169,-0.1683,-0.1608,-0.1589,-0.1535,-0.1514,-0.1485,-0.1461,-0.1396,-0.1357,-0.1343,-0.1314,-0.1265,-0.1222,-0.1216,-0.1196,-0.1179,-0.1174,-0.1263,-0.1275,-0.1286,-0.1299,-0.1176,-0.1175,-0.1082,-0.1081,-0.1081]},{"header":{"parameterUnit":"m.s-1","parameterCategory":1,"la1":30.2991,"la2":30.254,"lo1":-89.0895,"lo2":-89.0444,"dy":0.0017,"dx":0.0017,"nx":28,"ny":28,"refTime":"2023-11-07T09:00:00:Z","depth":0,"parameterNumber":3,"parameterNumberName":"V-component_of_WINDS"},"data":[0,0,0,0,0,0,0,0,0,0,0,0,0,0,0,0,0,0,0,0,0,0,0,0,0,0,0,0,0,0,0,0,0,0,0,0,0,0,0,0,0,0,0,0,0,0,0,0,0,0,0,0,0,0,0,0,0,0,0.6466,0.6467,0,0.6569,0.657,0.6572,0.6558,0.6557,0.6555,0.6553,0.6661,0.6665,0.6669,0,0,0,0,0,0,0,0,0,0,0,0,0,0.6261,0.6264,0.6466,0.6467,0.6469,0.6569,0.657,0.6572,0.6559,0.6557,0.6555,0.6553,0.6659,0.6664,0.667,0,0,0,0,0,0,0,0,0,0,0,0,0,0.6355,0.6266,0.6466,0.6474,0.6476,0.6569,0.657,0.6572,0.6559,0.6557,0.6554,0.6552,0.6657,0.6664,0.667,0.6762,0,0,0.6691,0.6693,0,0,0,0,0,0,0,0,0.635,0.6363,0.6472,0.6474,0.6476,0.6548,0.6537,0.6636,0.656,0.6528,0.6553,0.655,0.6625,0.6634,0.6659,0.6767,0.6772,0.6691,0.6695,0.6698,0.67,0,0,0,0,0,0,0,0.6343,0.6358,0.6507,0.6473,0.6476,0.6474,0.6484,0.6556,0.6589,0.653,0.6529,0.6542,0.6626,0.6653,0.6662,0.6773,0.6691,0.6697,0.6701,0.6704,0.6965,0.6968,0,0,0,0,0,0,0.6334,0.6353,0.6504,0.651,0.6405,0.6479,0.6491,0.6528,0.6589,0.6595,0.6544,0.6541,0.6643,0.6654,0.6666,0.678,0.6698,0.6704,0.6708,0.6962,0.6965,0.6969,0,0,0,0,0,0,0.633,0.6348,0.6499,0.6431,0.645,0.6486,0.6527,0.6531,0.6558,0.6599,0.6605,0.6565,0.6641,0.6656,0.6739,0.6783,0.6707,0.6713,0.6958,0.6963,0.6967,0.7008,0,0,0,0,0,0,0.6324,0.6346,0.6381,0.6432,0.6454,0.657,0.6529,0.6535,0.6569,0.6566,0.6621,0.6627,0.6641,0.6729,0.6745,0.6791,0.6718,0.6955,0.696,0.6966,0.7003,0.7013,0.7022,0,0,0,0,0,0.6317,0.6388,0.6383,0.6401,0.6498,0.6573,0.6586,0.6599,0.6573,0.6609,0.6635,0.6625,0.6775,0.6738,0.6756,0.6804,0.6952,0.6959,0.6965,0.6998,0.7011,0.7022,0,0,0,0,0,0,0.6341,0.6395,0.639,0.6479,0.6522,0.6571,0.6616,0.6612,0.6663,0.6658,0.6673,0.6685,0.677,0.6795,0.6752,0.6898,0.686,0.6871,0.6879,0.6891,0.6901,0.6895,0.6724,0,0,0,0,0,0.6357,0.6413,0.6456,0.6531,0.6553,0.6581,0.6614,0.6621,0.6665,0.6684,0.6716,0.676,0.6818,0.6855,0.691,0.7005,0.7019,0.7048,0.7057,0.7065,0.7075,0.7131,0.7145,0.699,0.699,0.699,0,0,0.639,0.6426,0.646,0.6537,0.6571,0.663,0.6596,0.6659,0.6704,0.6693,0.6774,0.68,0.685,0.6941,0.6982,0.6964,0.712,0.7073,0.7079,0.7085,0.7139,0.7154,0.7167,0.6995,0.6994,0.6993,0,0,0.6482,0.6513,0.6581,0.6615,0.6667,0.6685,0.6701,0.6751,0.6768,0.6849,0.6844,0.6897,0.6994,0.7032,0.7063,0.717,0.7165,0.7188,0.7239,0.7293,0.7306,0.7317,0.7359,0.7373,0.7197,0.7197,0.7197,0,0.6517,0.6605,0.6616,0.6681,0.6716,0.6709,0.6779,0.6811,0.6878,0.6904,0.6882,0.7007,0.704,0.714,0.7167,0.7191,0.7212,0.7183,0.7303,0.7314,0.7324,0.7365,0.738,0.72,0.7199,0.7199,0.7199,0,0.6648,0.6709,0.6757,0.6823,0.6863,0.6929,0.6952,0.6991,0.6995,0.7016,0.71,0.714,0.7204,0.7227,0.7231,0.733,0.7317,0.7299,0.7262,0.7342,0.738,0.7395,0.7204,0.7203,0.7202,0.7201,0,0,0.6759,0.683,0.6848,0.6879,0.6936,0.6984,0.7051,0.7113,0.7149,0.7195,0.7254,0.7337,0.7321,0.7357,0.7364,0.7411,0.7498,0.7388,0.7389,0.741,0.7614,0.763,0.7648,0.7493,0.7496,0.7498,0.7611,0,0.6859,0.6978,0.699,0.7097,0.7156,0.715,0.7209,0.7251,0.7272,0.7326,0.7349,0.741,0.7382,0.7404,0.745,0.7478,0.754,0.7469,0.7551,0.7554,0.7542,0.7667,0.7684,0.7788,0.7625,0.7628,0.763,0,0.6992,0.7043,0.7156,0.7207,0.7232,0.7285,0.7345,0.7395,0.7443,0.7455,0.7496,0.7498,0.7569,0.7527,0.7627,0.7579,0.7612,0.7631,0.7635,0.7646,0.7599,0.7685,0.7821,0.7838,0.7653,0.7651,0.7649,0,0.7067,0.7164,0.7245,0.727,0.7331,0.7369,0.7396,0.7441,0.7479,0.7531,0.7556,0.7615,0.7649,0.7695,0.7714,0.7681,0.7814,0.7773,0.7829,0.7829,0.7861,0.7859,0.8008,0.7876,0.7876,0.7875,0.7875,0,0.718,0.725,0.728,0.733,0.7409,0.7422,0.7501,0.7526,0.7567,0.7623,0.762,0.7673,0.7693,0.7749,0.7764,0.7847,0.7861,0.7875,0.7879,0.7877,0.7876,0.7902,0.7897,0.7879,0.7878,0.7878,0.7877,0,0.7279,0.7301,0.7389,0.7439,0.7453,0.751,0.7553,0.7603,0.7623,0.7694,0.7712,0.7744,0.7811,0.7833,0.7913,0.7923,0.8021,0.8016,0.8005,0.8007,0.8064,0.806,0.8238,0.8264,0.8111,0.8112,0.8114,0,0.7351,0.7406,0.7461,0.7499,0.7528,0.7587,0.7626,0.7641,0.7682,0.7742,0.7785,0.7851,0.7905,0.8012,0.8044,0.8106,0.8105,0.8163,0.8115,0.8113,0.8111,0.811,0.8117,0.8174,0.8175,0.8177,0.8178,0,0.7479,0.7488,0.7543,0.7604,0.765,0.7698,0.7745,0.7776,0.7798,0.7844,0.7913,0.7954,0.8037,0.8104,0.8168,0.8197,0.8193,0.8192,0.821,0.8211,0.8204,0.8213,0.8035,0.8189,0.8188,0.8187,0.8187,0.8186,0.757,0.7619,0.7667,0.773,0.7766,0.781,0.786,0.7887,0.7944,0.8013,0.8018,0.8093,0.8141,0.8226,0.8258,0.8318,0.8302,0.8326,0.8333,0.8339,0.8346,0.8191,0.8329,0.8329,0.8328,0.8328,0.8328,0,0.7702,0.7732,0.7789,0.7855,0.7905,0.7895,0.7946,0.7989,0.8055,0.81,0.8154,0.8234,0.8299,0.8335,0.8401,0.8442,0.8442,0.8459,0.8458,0.8466,0.8354,0.8335,0.8458,0.8458,0.8458,0.8458,0.8458,0.8458,0.7776,0.786,0.7874,0.7977,0.8007,0.808,0.8111,0.8152,0.8189,0.8278,0.8332,0.8355,0.8398,0.8466,0.8526,0.8536,0.8562,0.8581,0.859,0.8486,0.8473,0.846,0.8442,0.8586,0.8586,0.8696,0.8697,0.8698]}]]